Location: Izdebno
(52.6670°N, 16.2170°E)
Time: 10:45:36
(UTC+01:00)

Transit 2A - Pass Details

Date: 05 February 2023
Orbit: 591 x 964 km, 66.7° (Epoch: 21 March)

Event Time Altitude Azimuth Distance (km) Brightness Sun altitude
Rises 01:29:32 0° 318° (NW) 3,469 - -50.1°
Reaches altitude 10° 01:32:00 10° 314° (NW) 2,575 - -49.9°
Maximum altitude 01:37:51 53° 240° (WSW) 1,141 - -49.4°
Drops below altitude 10° 01:43:59 10° 165° (SSE) 2,691 - -48.9°
Sets 01:46:37 0° 161° (SSE) 3,639 - -48.7°
